| time (UTC) | temp F | wind direction | speed MPH | gust MPH | rain 1hr in | rain 24hr in | rain mn in | humidity % | barometer mb |
| 20260905060804 | 75 | 301 | 7.0 | 13.0 | 0.00 | 0.02 | 0.00 | 90 | 1009.2 |
| 20260905060304 | 75 | 296 | 7.0 | 12.0 | 0.00 | 0.02 | 0.00 | 90 | 1009.1 |
| 20260905055803 | 75 | 304 | 9.0 | 12.0 | 0.00 | 0.02 | 0.00 | 90 | 1009.2 |
| 20260905054804 | 75 | 301 | 7.0 | 12.0 | 0.00 | 0.02 | 0.00 | 90 | 1009.3 |
| 20260905054304 | 75 | 307 | 5.0 | 12.0 | 0.00 | 0.02 | 0.00 | 90 | 1009.3 |
| 20260905053804 | 76 | 291 | 7.0 | 13.0 | 0.00 | 0.02 | 0.00 | 90 | 1009.3 |
| 20260905053303 | 76 | 307 | 5.0 | 12.0 | 0.00 | 0.02 | 0.00 | 90 | 1009.4 |
| 20260905052804 | 76 | 291 | 6.0 | 12.0 | 0.00 | 0.02 | 0.00 | 90 | 1009.5 |
| 20260905051803 | 76 | 298 | 7.0 | 12.0 | 0.00 | 0.02 | 0.00 | 90 | 1009.6 |
| 20260905051303 | 76 | 303 | 6.0 | 14.0 | 0.00 | 0.02 | 0.00 | 90 | 1009.7 |
| 20260905050804 | 76 | 299 | 7.0 | 10.0 | 0.00 | 0.02 | 0.00 | 90 | 1009.7 |
| 20260905050304 | 76 | 299 | 5.0 | 10.0 | 0.00 | 0.02 | 0.00 | 90 | 1009.8 |
| 20260905045804 | 76 | 299 | 5.0 | 9.0 | 0.00 | 0.02 | 0.00 | 90 | 1009.9 |
| 20260905045306 | 76 | 301 | 4.0 | 12.0 | 0.00 | 0.02 | 0.00 | 90 | 1009.9 |
| 20260905044805 | 76 | 289 | 5.0 | 12.0 | 0.00 | 0.02 | 0.00 | 90 | 1009.8 |
| 20260905043803 | 76 | 295 | 7.0 | 12.0 | 0.00 | 0.02 | 0.00 | 90 | 1009.9 |
| 20260905043303 | 77 | 295 | 7.0 | 10.0 | 0.00 | 0.02 | 0.00 | 90 | 1010.0 |
| 20260905042803 | 77 | 297 | 6.0 | 12.0 | 0.00 | 0.02 | 0.00 | 90 | 1009.8 |
| 20260905042307 | 77 | 298 | 6.0 | 10.0 | 0.00 | 0.03 | 0.00 | 90 | 1009.8 |
| 20260905041304 | 77 | 298 | 5.0 | 9.0 | 0.00 | 0.05 | 0.00 | 89 | 1009.8 |
| 20260905040804 | 77 | 289 | 5.0 | 12.0 | 0.00 | 0.05 | 0.00 | 89 | 1010.0 |
| 20260905040303 | 77 | 293 | 6.0 | 9.0 | 0.00 | 0.05 | 0.00 | 89 | 1010.0 |
| 20260905035803 | 77 | 283 | 4.0 | 7.0 | 0.00 | 0.05 | 0.05 | 89 | 1009.9 |
| 20260905035306 | 77 | 283 | 4.0 | 8.0 | 0.00 | 0.05 | 0.05 | 89 | 1010.0 |
| 20260905034803 | 77 | 285 | 4.0 | 7.0 | 0.00 | 0.05 | 0.05 | 89 | 1010.1 |
| 20260905034304 | 77 | 286 | 2.0 | 6.0 | 0.00 | 0.05 | 0.05 | 88 | 1010.1 |
| 20260905032804 | 78 | 284 | 5.0 | 9.0 | 0.00 | 0.05 | 0.05 | 88 | 1010.1 |
| 20260905032306 | 78 | 287 | 5.0 | 8.0 | 0.00 | 0.05 | 0.05 | 88 | 1010.1 |
| 20260905031804 | 78 | 264 | 4.0 | 9.0 | 0.00 | 0.05 | 0.05 | 87 | 1010.1 |
| 20260905031304 | 78 | 239 | 3.0 | 9.0 | 0.00 | 0.05 | 0.05 | 87 | 1010.1 |
| 20260905030804 | 78 | 238 | 2.0 | 6.0 | 0.00 | 0.05 | 0.05 | 87 | 1010.1 |
| 20260905025804 | 78 | 241 | 5.0 | 9.0 | 0.00 | 0.05 | 0.05 | 86 | 1010.1 |
| 20260905025306 | 78 | 236 | 2.0 | 7.0 | 0.00 | 0.05 | 0.05 | 86 | 1010.1 |
| 20260905024804 | 78 | 240 | 3.0 | 5.0 | 0.00 | 0.05 | 0.05 | 86 | 1010.2 |
| 20260905024304 | 79 | 232 | 2.0 | 6.0 | 0.00 | 0.05 | 0.05 | 86 | 1010.1 |
| 20260905023804 | 79 | 231 | 2.0 | 5.0 | 0.00 | 0.05 | 0.05 | 86 | 1010.0 |
| 20260905023304 | 79 | 232 | 3.0 | 5.0 | 0.00 | 0.05 | 0.05 | 85 | 1010.1 |
| 20260905022804 | 79 | 243 | 2.0 | 5.0 | 0.00 | 0.05 | 0.05 | 85 | 1010.1 |
| 20260905022306 | 79 | 243 | 2.0 | 3.0 | 0.00 | 0.05 | 0.05 | 85 | 1010.0 |
| 20260905021804 | 79 | 243 | 1.0 | 3.0 | 0.00 | 0.05 | 0.05 | 85 | 1009.9 |
| 20260905021304 | 79 | 253 | 1.0 | 3.0 | 0.00 | 0.05 | 0.05 | 84 | 1009.9 |
| 20260905020804 | 79 | 253 | 2.0 | 3.0 | 0.00 | 0.05 | 0.05 | 84 | 1010.0 |
| 20260905020304 | 79 | 272 | 1.0 | 3.0 | 0.00 | 0.05 | 0.05 | 84 | 1010.0 |
| 20260905015804 | 79 | 243 | 2.0 | 5.0 | 0.00 | 0.05 | 0.05 | 84 | 1010.0 |
| 20260905015306 | 80 | 256 | 1.0 | 3.0 | 0.00 | 0.05 | 0.05 | 83 | 1010.0 |
| 20260905014804 | 80 | 247 | 2.0 | 5.0 | 0.00 | 0.05 | 0.05 | 83 | 1009.8 |
| 20260905014304 | 80 | 219 | 2.0 | 3.0 | 0.00 | 0.05 | 0.05 | 83 | 1009.8 |
| 20260905013804 | 80 | 281 | 2.0 | 3.0 | 0.00 | 0.05 | 0.05 | 83 | 1009.8 |
| 20260905013303 | 80 | 275 | 3.0 | 6.0 | 0.00 | 0.05 | 0.05 | 82 | 1009.7 |
| 20260905012803 | 80 | 263 | 3.0 | 7.0 | 0.00 | 0.05 | 0.05 | 82 | 1009.5 |
| 20260905012306 | 80 | 285 | 2.0 | 6.0 | 0.00 | 0.05 | 0.05 | 81 | 1009.6 |
| 20260905011804 | 80 | 288 | 3.0 | 6.0 | 0.00 | 0.05 | 0.05 | 81 | 1009.4 |
| 20260905011304 | 81 | 283 | 3.0 | 7.0 | 0.00 | 0.05 | 0.05 | 80 | 1009.4 |
| 20260905010803 | 81 | 293 | 2.0 | 3.0 | 0.00 | 0.05 | 0.05 | 80 | 1009.4 |
| 20260905010303 | 81 | 250 | 2.0 | 3.0 | 0.00 | 0.05 | 0.05 | 80 | 1009.4 |
| 20260905005803 | 81 | 250 | 2.0 | 3.0 | 0.00 | 0.05 | 0.05 | 80 | 1009.4 |
| 20260905005306 | 81 | 250 | 2.0 | 3.0 | 0.00 | 0.05 | 0.05 | 80 | 1009.3 |
| 20260905004803 | 81 | 259 | 2.0 | 5.0 | 0.00 | 0.05 | 0.05 | 79 | 1009.4 |
| 20260905004304 | 81 | 273 | 1.0 | 3.0 | 0.00 | 0.05 | 0.05 | 79 | 1009.4 |
| 20260905003804 | 81 | 273 | 1.0 | 2.0 | 0.00 | 0.05 | 0.05 | 79 | 1009.5 |
| 20260905003304 | 81 | 273 | 2.0 | 3.0 | 0.00 | 0.05 | 0.05 | 78 | 1009.4 |
| 20260905001803 | 82 | 273 | 2.0 | 3.0 | 0.00 | 0.05 | 0.05 | 78 | 1009.3 |
| 20260905001303 | 82 | 273 | 1.0 | 3.0 | 0.00 | 0.05 | 0.05 | 77 | 1009.3 |
| 20260905000804 | 82 | 273 | 1.0 | 2.0 | 0.00 | 0.05 | 0.05 | 77 | 1009.4 |
| 20260904235306 | 83 | 273 | 2.0 | 3.0 | 0.00 | 0.05 | 0.05 | 76 | 1009.1 |
| 20260904234803 | 83 | 273 | 0.0 | 1.0 | 0.00 | 0.05 | 0.05 | 75 | 1009.2 |
| 20260904234304 | 83 | 273 | 1.0 | 3.0 | 0.00 | 0.05 | 0.05 | 75 | 1009.4 |
| 20260904233804 | 83 | 273 | 1.0 | 3.0 | 0.00 | 0.05 | 0.05 | 75 | 1009.4 |
| 20260904232804 | 83 | 273 | 2.0 | 3.0 | 0.00 | 0.05 | 0.05 | 74 | 1009.5 |
| 20260904232306 | 84 | 273 | 0.0 | 0.0 | 0.00 | 0.05 | 0.05 | 74 | 1009.5 |
| 20260904231304 | 84 | 273 | 1.0 | 3.0 | 0.00 | 0.05 | 0.05 | 73 | 1009.6 |
| 20260904230304 | 84 | 273 | 1.0 | 3.0 | 0.00 | 0.05 | 0.05 | 72 | 1009.5 |
| 20260904225804 | 84 | 290 | 2.0 | 3.0 | 0.00 | 0.05 | 0.05 | 72 | 1009.5 |
| 20260904225305 | 84 | 291 | 2.0 | 6.0 | 0.00 | 0.05 | 0.05 | 72 | 1009.5 |
| 20260904224803 | 84 | 291 | 2.0 | 6.0 | 0.00 | 0.05 | 0.05 | 71 | 1009.4 |
| 20260904224303 | 84 | 259 | 1.0 | 3.0 | 0.00 | 0.05 | 0.05 | 71 | 1009.3 |
| 20260904223803 | 85 | 243 | 2.0 | 3.0 | 0.00 | 0.05 | 0.05 | 71 | 1009.3 |
| 20260904223304 | 85 | 243 | 1.0 | 3.0 | 0.00 | 0.05 | 0.05 | 70 | 1009.3 |
| 20260904222803 | 85 | 243 | 2.0 | 3.0 | 0.00 | 0.05 | 0.05 | 70 | 1009.4 |
| 20260904222306 | 85 | 243 | 1.0 | 3.0 | 0.00 | 0.05 | 0.05 | 70 | 1009.5 |
| 20260904221804 | 85 | 243 | 0.0 | 2.0 | 0.00 | 0.05 | 0.05 | 70 | 1009.6 |
| 20260904221303 | 85 | 243 | 0.0 | 1.0 | 0.00 | 0.05 | 0.05 | 69 | 1009.6 |
| 20260904220804 | 85 | 243 | 0.0 | 2.0 | 0.00 | 0.05 | 0.05 | 69 | 1009.8 |
| 20260904220303 | 85 | 243 | 1.0 | 3.0 | 0.00 | 0.05 | 0.05 | 69 | 1010.0 |
| 20260904215804 | 85 | 260 | 1.0 | 2.0 | 0.00 | 0.05 | 0.05 | 68 | 1010.0 |
| 20260904215305 | 85 | 256 | 1.0 | 3.0 | 0.00 | 0.05 | 0.05 | 68 | 1009.9 |
| 20260904214804 | 85 | 289 | 2.0 | 3.0 | 0.00 | 0.05 | 0.05 | 68 | 1010.0 |
| 20260904214304 | 86 | 290 | 1.0 | 3.0 | 0.00 | 0.05 | 0.05 | 68 | 1010.1 |
| 20260904213304 | 86 | 268 | 2.0 | 3.0 | 0.00 | 0.05 | 0.05 | 66 | 1010.1 |
| 20260904212803 | 86 | 320 | 1.0 | 3.0 | 0.00 | 0.05 | 0.05 | 66 | 1010.1 |
| 20260904212306 | 86 | 281 | 2.0 | 3.0 | 0.00 | 0.05 | 0.05 | 65 | 1010.1 |
| 20260904211803 | 86 | 275 | 2.0 | 3.0 | 0.00 | 0.05 | 0.05 | 65 | 1010.1 |
| 20260904211303 | 86 | 273 | 1.0 | 3.0 | 0.00 | 0.05 | 0.05 | 64 | 1010.0 |
| 20260904210803 | 87 | 266 | 1.0 | 3.0 | 0.00 | 0.05 | 0.05 | 64 | 1010.0 |
| 20260904210304 | 87 | 316 | 2.0 | 3.0 | 0.00 | 0.05 | 0.05 | 64 | 1010.2 |
| 20260904205804 | 87 | 335 | 1.0 | 6.0 | 0.00 | 0.05 | 0.05 | 64 | 1010.3 |
| 20260904205305 | 87 | 327 | 3.0 | 7.0 | 0.00 | 0.05 | 0.05 | 63 | 1010.3 |
| 20260904204803 | 87 | 275 | 1.0 | 6.0 | 0.00 | 0.05 | 0.05 | 62 | 1010.4 |
| 20260904204304 | 88 | 278 | 2.0 | 6.0 | 0.00 | 0.05 | 0.05 | 62 | 1010.4 |
| 20260904203303 | 89 | 300 | 6.0 | 9.0 | 0.00 | 0.05 | 0.05 | 60 | 1010.5 |
| 20260904202803 | 89 | 291 | 2.0 | 8.0 | 0.00 | 0.05 | 0.05 | 61 | 1010.6 |
| 20260904202306 | 89 | 303 | 3.0 | 8.0 | 0.00 | 0.05 | 0.05 | 60 | 1010.7 |
| 20260904201803 | 90 | 286 | 2.0 | 7.0 | 0.00 | 0.05 | 0.05 | 59 | 1010.6 |
| 20260904201305 | 90 | 327 | 3.0 | 7.0 | 0.00 | 0.05 | 0.05 | 59 | 1010.7 |
| 20260904200804 | 90 | 345 | 4.0 | 9.0 | 0.00 | 0.05 | 0.05 | 58 | 1010.6 |
| 20260904200304 | 90 | 306 | 4.0 | 9.0 | 0.00 | 0.05 | 0.05 | 59 | 1010.7 |
| 20260904195306 | 90 | 305 | 7.0 | 12.0 | 0.00 | 0.05 | 0.05 | 57 | 1010.4 |
| 20260904194304 | 91 | 294 | 1.0 | 8.0 | 0.00 | 0.05 | 0.05 | 57 | 1010.2 |
| 20260904193804 | 91 | 306 | 7.0 | 13.0 | 0.00 | 0.05 | 0.05 | 57 | 1010.4 |
| 20260904193304 | 91 | 296 | 6.0 | 10.0 | 0.00 | 0.05 | 0.05 | 57 | 1010.4 |
| 20260904192306 | 91 | 11 | 8.0 | 16.0 | 0.00 | 0.05 | 0.05 | 58 | 1010.4 |
| 20260904190804 | 91 | 355 | 7.0 | 14.0 | 0.00 | 0.05 | 0.05 | 58 | 1010.7 |
| 20260904190304 | 91 | 339 | 9.0 | 13.0 | 0.00 | 0.05 | 0.05 | 58 | 1010.8 |
| 20260904185804 | 91 | 349 | 7.0 | 14.0 | 0.00 | 0.05 | 0.05 | 58 | 1010.9 |
| 20260904185306 | 90 | 284 | 6.0 | 14.0 | 0.00 | 0.05 | 0.05 | 58 | 1010.9 |
| 20260904184804 | 90 | 309 | 3.0 | 13.0 | 0.00 | 0.05 | 0.05 | 57 | 1011.1 |
| 20260904184304 | 91 | 318 | 7.0 | 14.0 | 0.00 | 0.05 | 0.05 | 58 | 1011.2 |
| 20260904183804 | 91 | 9 | 9.0 | 14.0 | 0.00 | 0.05 | 0.05 | 58 | 1011.2 |
| 20260904183303 | 91 | 318 | 5.0 | 10.0 | 0.00 | 0.05 | 0.05 | 58 | 1011.2 |
| 20260904182804 | 91 | 300 | 8.0 | 13.0 | 0.00 | 0.05 | 0.05 | 58 | 1011.2 |
| 20260904181803 | 91 | 306 | 4.0 | 9.0 | 0.00 | 0.05 | 0.05 | 59 | 1011.3 |
| 20260904180804 | 90 | 19 | 6.0 | 12.0 | 0.00 | 0.05 | 0.05 | 58 | 1011.1 |
| 20260904180305 | 90 | 303 | 6.0 | 13.0 | 0.00 | 0.05 | 0.05 | 58 | 1011.2 |
| 20260904175804 | 90 | 11 | 7.0 | 12.0 | 0.00 | 0.05 | 0.05 | 58 | 1011.2 |
| 20260904175305 | 90 | 7 | 9.0 | 15.0 | 0.00 | 0.05 | 0.05 | 58 | 1011.2 |
| 20260904174804 | 90 | 1 | 6.0 | 15.0 | 0.00 | 0.05 | 0.05 | 58 | 1011.2 |
| 20260904174304 | 90 | 2 | 6.0 | 12.0 | 0.00 | 0.05 | 0.05 | 58 | 1011.1 |
| 20260904172804 | 89 | 307 | 5.0 | 13.0 | 0.00 | 0.05 | 0.05 | 60 | 1011.2 |
| 20260904172305 | 89 | 348 | 7.0 | 12.0 | 0.00 | 0.05 | 0.05 | 60 | 1011.4 |
| 20260904171804 | 89 | 291 | 5.0 | 9.0 | 0.00 | 0.05 | 0.05 | 60 | 1011.4 |
| 20260904171304 | 89 | 335 | 6.0 | 12.0 | 0.00 | 0.05 | 0.05 | 62 | 1011.5 |
| 20260904170803 | 89 | 340 | 6.0 | 12.0 | 0.00 | 0.05 | 0.05 | 61 | 1011.5 |
| 20260904170303 | 88 | 320 | 6.0 | 13.0 | 0.00 | 0.05 | 0.05 | 60 | 1011.5 |
| 20260904165803 | 88 | 326 | 5.0 | 10.0 | 0.00 | 0.05 | 0.05 | 62 | 1011.6 |
| 20260904164304 | 88 | 23 | 6.0 | 10.0 | 0.00 | 0.05 | 0.05 | 63 | 1011.8 |
| 20260904162804 | 87 | 348 | 6.0 | 12.0 | 0.00 | 0.05 | 0.05 | 66 | 1012.1 |
| 20260904161803 | 87 | 294 | 6.0 | 12.0 | 0.00 | 0.06 | 0.05 | 65 | 1012.2 |
| 20260904161304 | 86 | 298 | 4.0 | 12.0 | 0.00 | 0.07 | 0.05 | 68 | 1012.2 |
| 20260904160304 | 86 | 277 | 5.0 | 10.0 | 0.00 | 0.07 | 0.05 | 67 | 1012.2 |
| 20260904155804 | 86 | 289 | 7.0 | 13.0 | 0.00 | 0.07 | 0.05 | 66 | 1012.2 |
| 20260904155306 | 86 | 299 | 5.0 | 12.0 | 0.00 | 0.07 | 0.05 | 67 | 1012.1 |
| 20260904154804 | 86 | 302 | 6.0 | 10.0 | 0.00 | 0.08 | 0.05 | 66 | 1012.2 |
| 20260904153304 | 86 | 302 | 5.0 | 12.0 | 0.00 | 0.08 | 0.05 | 66 | 1012.4 |
| 20260904152804 | 86 | 306 | 7.0 | 14.0 | 0.00 | 0.08 | 0.05 | 66 | 1012.6 |
| 20260904151803 | 86 | 326 | 3.0 | 9.0 | 0.00 | 0.08 | 0.05 | 67 | 1012.5 |
| 20260904151303 | 85 | 312 | 6.0 | 12.0 | 0.00 | 0.08 | 0.05 | 68 | 1012.4 |
| 20260904150803 | 85 | 320 | 7.0 | 13.0 | 0.00 | 0.08 | 0.05 | 68 | 1012.4 |
| 20260904150304 | 85 | 334 | 6.0 | 10.0 | 0.00 | 0.08 | 0.05 | 68 | 1012.4 |
| 20260904145803 | 85 | 342 | 5.0 | 12.0 | 0.00 | 0.08 | 0.05 | 68 | 1012.3 |
| 20260904145305 | 85 | 337 | 9.0 | 13.0 | 0.00 | 0.08 | 0.05 | 68 | 1012.5 |
| 20260904144804 | 84 | 305 | 7.0 | 12.0 | 0.00 | 0.08 | 0.05 | 69 | 1012.5 |
| 20260904144304 | 84 | 285 | 5.0 | 9.0 | 0.00 | 0.08 | 0.05 | 70 | 1012.4 |
| 20260904143804 | 83 | 355 | 3.0 | 9.0 | 0.00 | 0.08 | 0.05 | 72 | 1012.5 |
| 20260904143304 | 83 | 12 | 5.0 | 13.0 | 0.00 | 0.08 | 0.05 | 71 | 1012.5 |
| 20260904142804 | 83 | 339 | 7.0 | 13.0 | 0.00 | 0.08 | 0.05 | 72 | 1012.5 |
| 20260904142306 | 83 | 11 | 9.0 | 14.0 | 0.00 | 0.08 | 0.05 | 71 | 1012.3 |
| 20260904141803 | 83 | 14 | 11.0 | 17.0 | 0.00 | 0.08 | 0.05 | 71 | 1012.3 |
| 20260904140803 | 83 | 329 | 10.0 | 17.0 | 0.00 | 0.08 | 0.05 | 73 | 1012.4 |
| 20260904140303 | 83 | 277 | 6.0 | 15.0 | 0.00 | 0.08 | 0.05 | 74 | 1012.3 |
| 20260904135804 | 83 | 302 | 5.0 | 12.0 | 0.00 | 0.08 | 0.05 | 74 | 1012.3 |
| 20260904135306 | 82 | 306 | 5.0 | 12.0 | 0.00 | 0.08 | 0.05 | 75 | 1012.3 |
| 20260904134304 | 82 | 321 | 6.0 | 10.0 | 0.00 | 0.08 | 0.05 | 76 | 1012.6 |
| 20260904133803 | 82 | 349 | 6.0 | 12.0 | 0.00 | 0.08 | 0.05 | 77 | 1012.6 |
| 20260904132803 | 81 | 327 | 5.0 | 14.0 | 0.00 | 0.08 | 0.05 | 79 | 1012.3 |
| 20260904132306 | 80 | 335 | 5.0 | 9.0 | 0.00 | 0.08 | 0.05 | 81 | 1012.3 |
| 20260904131804 | 79 | 344 | 3.0 | 8.0 | 0.00 | 0.08 | 0.05 | 81 | 1012.3 |
| 20260904131303 | 79 | 315 | 6.0 | 12.0 | 0.00 | 0.08 | 0.05 | 83 | 1012.2 |
| 20260904130803 | 78 | 309 | 6.0 | 10.0 | 0.00 | 0.08 | 0.05 | 87 | 1012.2 |
| 20260904125803 | 77 | 302 | 0.0 | 2.0 | 0.01 | 0.08 | 0.05 | 92 | 1012.3 |
| 20260904125305 | 76 | 302 | 0.0 | 2.0 | 0.01 | 0.08 | 0.05 | 93 | 1012.3 |
| 20260904124803 | 75 | 302 | 1.0 | 3.0 | 0.01 | 0.08 | 0.05 | 94 | 1012.3 |
| 20260904124303 | 75 | 288 | 2.0 | 3.0 | 0.01 | 0.08 | 0.05 | 94 | 1012.3 |
| 20260904123803 | 74 | 225 | 2.0 | 5.0 | 0.01 | 0.08 | 0.05 | 94 | 1012.4 |
| 20260904123303 | 74 | 308 | 3.0 | 8.0 | 0.01 | 0.08 | 0.05 | 95 | 1012.5 |
| 20260904122804 | 73 | 301 | 2.0 | 5.0 | 0.01 | 0.08 | 0.05 | 95 | 1012.5 |
| 20260904121803 | 73 | 319 | 4.0 | 8.0 | 0.01 | 0.08 | 0.05 | 95 | 1012.4 |
| 20260904120304 | 72 | 300 | 5.0 | 9.0 | 0.01 | 0.08 | 0.05 | 95 | 1012.2 |
| 20260904115306 | 72 | 296 | 5.0 | 9.0 | 0.00 | 0.07 | 0.04 | 95 | 1012.2 |
| 20260904114804 | 72 | 282 | 5.0 | 8.0 | 0.00 | 0.07 | 0.04 | 95 | 1012.2 |
| 20260904114304 | 72 | 303 | 3.0 | 9.0 | 0.00 | 0.07 | 0.04 | 95 | 1012.2 |
| 20260904113804 | 71 | 281 | 3.0 | 7.0 | 0.00 | 0.07 | 0.04 | 95 | 1012.1 |
| 20260904113304 | 71 | 282 | 2.0 | 9.0 | 0.00 | 0.07 | 0.04 | 95 | 1012.1 |
| 20260904112804 | 71 | 315 | 2.0 | 8.0 | 0.00 | 0.07 | 0.04 | 95 | 1012.1 |
| 20260904112305 | 71 | 299 | 2.0 | 6.0 | 0.00 | 0.07 | 0.04 | 95 | 1012.0 |
| 20260904111803 | 71 | 299 | 2.0 | 7.0 | 0.00 | 0.07 | 0.04 | 95 | 1012.0 |
| 20260904111303 | 71 | 277 | 5.0 | 9.0 | 0.00 | 0.07 | 0.04 | 95 | 1012.0 |
| 20260904110803 | 71 | 287 | 2.0 | 6.0 | 0.00 | 0.07 | 0.04 | 95 | 1011.9 |
| 20260904110303 | 71 | 279 | 2.0 | 7.0 | 0.00 | 0.07 | 0.04 | 95 | 1011.8 |
| 20260904105804 | 71 | 273 | 1.0 | 3.0 | 0.00 | 0.07 | 0.04 | 95 | 1011.7 |
| 20260904105306 | 71 | 293 | 1.0 | 3.0 | 0.00 | 0.07 | 0.04 | 95 | 1011.8 |
| 20260904104804 | 71 | 218 | 1.0 | 3.0 | 0.00 | 0.07 | 0.04 | 95 | 1011.7 |
| 20260904103803 | 72 | 254 | 1.0 | 3.0 | 0.01 | 0.07 | 0.04 | 95 | 1011.8 |
| 20260904102803 | 72 | 249 | 2.0 | 3.0 | 0.01 | 0.07 | 0.04 | 95 | 1011.7 |
| 20260904102306 | 72 | 199 | 2.0 | 3.0 | 0.01 | 0.07 | 0.04 | 95 | 1011.4 |
| 20260904101804 | 72 | 175 | 3.0 | 3.0 | 0.01 | 0.07 | 0.04 | 95 | 1011.3 |
| 20260904100804 | 72 | 65 | 0.0 | 0.0 | 0.01 | 0.07 | 0.04 | 95 | 1011.5 |
| 20260904100303 | 72 | 65 | 1.0 | 3.0 | 0.01 | 0.07 | 0.04 | 95 | 1011.4 |
| 20260904095306 | 72 | 352 | 2.0 | 5.0 | 0.01 | 0.07 | 0.04 | 95 | 1011.7 |
| 20260904094303 | 72 | 316 | 2.0 | 7.0 | 0.00 | 0.06 | 0.03 | 95 | 1012.2 |
| 20260904093803 | 72 | 289 | 3.0 | 7.0 | 0.00 | 0.06 | 0.03 | 95 | 1012.0 |
| 20260904093304 | 72 | 109 | 2.0 | 3.0 | 0.00 | 0.06 | 0.03 | 94 | 1011.5 |
| 20260904092803 | 72 | 109 | 0.0 | 0.0 | 0.00 | 0.06 | 0.03 | 94 | 1011.2 |
| 20260904092306 | 72 | 109 | 1.0 | 3.0 | 0.00 | 0.06 | 0.03 | 95 | 1011.1 |
| 20260904091803 | 72 | 23 | 2.0 | 3.0 | 0.00 | 0.06 | 0.03 | 94 | 1011.2 |
| 20260904091303 | 72 | 23 | 1.0 | 2.0 | 0.00 | 0.06 | 0.03 | 94 | 1011.1 |
| 20260904090803 | 72 | 23 | 1.0 | 2.0 | 0.00 | 0.06 | 0.03 | 94 | 1011.1 |
| 20260904085804 | 72 | 23 | 2.0 | 3.0 | 0.00 | 0.06 | 0.03 | 94 | 1011.2 |
| 20260904084804 | 72 | 23 | 2.0 | 3.0 | 0.00 | 0.06 | 0.03 | 94 | 1011.3 |
| 20260904084304 | 72 | 23 | 2.0 | 3.0 | 0.00 | 0.06 | 0.03 | 94 | 1011.3 |
| 20260904083804 | 72 | 280 | 0.0 | 3.0 | 0.00 | 0.06 | 0.03 | 94 | 1011.3 |
| 20260904083304 | 72 | 280 | 0.0 | 3.0 | 0.00 | 0.06 | 0.03 | 94 | 1011.3 |
| 20260904082803 | 72 | 219 | 2.0 | 3.0 | 0.00 | 0.06 | 0.03 | 94 | 1011.3 |
| 20260904082306 | 72 | 236 | 2.0 | 3.0 | 0.00 | 0.06 | 0.03 | 94 | 1011.3 |
| 20260904081804 | 72 | 216 | 2.0 | 3.0 | 0.00 | 0.06 | 0.03 | 94 | 1011.3 |
| 20260904081303 | 72 | 235 | 3.0 | 5.0 | 0.00 | 0.06 | 0.03 | 94 | 1011.3 |
| 20260904080304 | 72 | 198 | 3.0 | 6.0 | 0.00 | 0.06 | 0.03 | 94 | 1011.5 |
| 20260904075803 | 72 | 219 | 2.0 | 3.0 | 0.00 | 0.06 | 0.03 | 93 | 1011.5 |
| 20260904073803 | 72 | 181 | 3.0 | 7.0 | 0.00 | 0.06 | 0.03 | 93 | 1011.7 |
| 20260904073304 | 72 | 225 | 2.0 | 3.0 | 0.00 | 0.06 | 0.03 | 93 | 1011.6 |
| 20260904072804 | 72 | 225 | 2.0 | 3.0 | 0.00 | 0.06 | 0.03 | 93 | 1011.4 |
| 20260904071304 | 72 | 225 | 2.0 | 3.0 | 0.00 | 0.06 | 0.03 | 93 | 1011.2 |
| 20260904070303 | 72 | 185 | 2.0 | 3.0 | 0.00 | 0.06 | 0.03 | 92 | 1011.2 |
| 20260904065804 | 72 | 198 | 2.0 | 3.0 | 0.00 | 0.06 | 0.03 | 92 | 1011.2 |
| 20260904065306 | 72 | 198 | 2.0 | 3.0 | 0.00 | 0.06 | 0.03 | 92 | 1011.2 |
| 20260904064303 | 72 | 196 | 3.0 | 5.0 | 0.00 | 0.06 | 0.03 | 92 | 1011.0 |
| 20260904063804 | 72 | 199 | 2.0 | 7.0 | 0.00 | 0.06 | 0.03 | 92 | 1010.9 |
| 20260904062803 | 72 | 189 | 2.0 | 5.0 | 0.00 | 0.06 | 0.03 | 92 | 1010.7 |
| 20260904062306 | 72 | 192 | 3.0 | 5.0 | 0.00 | 0.06 | 0.03 | 91 | 1010.7 |
| 20260904061803 | 72 | 186 | 2.0 | 3.0 | 0.00 | 0.06 | 0.03 | 91 | 1010.8 |
| 20260904061304 | 72 | 220 | 2.0 | 3.0 | 0.00 | 0.06 | 0.03 | 91 | 1010.9 |